[[{"header":{"parameterUnit":"m.s-1","parameterCategory":1,"la1":30.2991,"la2":30.254,"lo1":-89.0895,"lo2":-89.0444,"dy":0.0017,"dx":0.0017,"nx":28,"ny":28,"refTime":"2025-04-17T09:00:00:Z","depth":0,"parameterNumber":2,"parameterNumberName":"U-component_of_WINDS"},"data":[0,0,0,0,0,0,0,0,0,0,0,0,0,0,0,0,0,0,0,0,0,0,0,0,0,0,0,0,0,0,0,0,0,0,0,0,0,0,0,0,0,0,0,0,0,0,0,0,0,0,0,0,0,0,0,0,0,0,-3.5076,-3.5077,0,-3.5131,-3.5132,-3.5133,-3.5138,-3.5137,-3.5137,-3.5136,-3.5192,-3.5194,-3.5196,0,0,0,0,0,0,0,0,0,0,0,0,0,-3.4974,-3.4976,-3.5076,-3.5077,-3.5077,-3.5131,-3.5132,-3.5133,-3.5138,-3.5137,-3.5137,-3.5136,-3.5191,-3.5194,-3.5196,0,0,0,0,0,0,0,0,0,0,0,0,0,-3.5023,-3.4977,-3.5076,-3.5086,-3.5088,-3.5131,-3.5132,-3.5133,-3.5138,-3.5137,-3.5136,-3.5136,-3.519,-3.5193,-3.5196,-3.5232,0,0,-3.5206,-3.5207,0,0,0,0,0,0,0,0,-3.502,-3.5027,-3.5084,-3.5086,-3.5088,-3.5127,-3.5117,-3.5166,-3.5138,-3.5119,-3.5136,-3.5135,-3.5171,-3.5175,-3.5188,-3.5235,-3.5237,-3.5206,-3.5208,-3.5209,-3.521,0,0,0,0,0,0,0,-3.5017,-3.5024,-3.5098,-3.5085,-3.5087,-3.5088,-3.5094,-3.5126,-3.5149,-3.5121,-3.5121,-3.5128,-3.5172,-3.5185,-3.5189,-3.5238,-3.5206,-3.5208,-3.521,-3.5212,-3.5318,-3.5319,0,0,0,0,0,0,-3.5011,-3.5021,-3.5096,-3.5099,-3.5051,-3.5091,-3.5098,-3.5115,-3.5149,-3.5153,-3.5128,-3.5128,-3.518,-3.5186,-3.5191,-3.5235,-3.5209,-3.5212,-3.5214,-3.5317,-3.5318,-3.5319,0,0,0,0,0,0,-3.5009,-3.5018,-3.5094,-3.5061,-3.507,-3.5094,-3.5113,-3.5117,-3.513,-3.5155,-3.5159,-3.5138,-3.518,-3.5187,-3.5222,-3.5237,-3.5213,-3.5216,-3.5316,-3.5318,-3.5319,-3.5323,0,0,0,0,0,0,-3.5006,-3.5017,-3.5031,-3.5061,-3.5072,-3.5124,-3.5114,-3.5118,-3.5135,-3.5135,-3.5164,-3.5168,-3.5179,-3.5218,-3.5225,-3.5241,-3.5218,-3.5315,-3.5317,-3.5318,-3.5322,-3.5325,-3.5327,0,0,0,0,0,-3.5003,-3.503,-3.5032,-3.5041,-3.509,-3.5125,-3.5131,-3.5144,-3.5136,-3.515,-3.5167,-3.5167,-3.5235,-3.5221,-3.523,-3.5246,-3.5314,-3.5316,-3.5318,-3.5321,-3.5324,-3.5327,0,0,0,0,0,0,-3.5,-3.5034,-3.5036,-3.5074,-3.5097,-3.5126,-3.5143,-3.5147,-3.5172,-3.517,-3.5185,-3.5191,-3.5226,-3.524,-3.5225,-3.5283,-3.5273,-3.5278,-3.5272,-3.5276,-3.5278,-3.5273,-3.5221,0,0,0,0,0,-3.5004,-3.503,-3.5058,-3.5088,-3.51,-3.512,-3.5135,-3.5143,-3.5167,-3.5176,-3.5195,-3.5218,-3.5245,-3.5261,-3.5287,-3.5325,-3.5331,-3.5341,-3.5343,-3.5345,-3.5348,-3.5369,-3.5373,-3.5327,-3.5327,-3.5327,0,0,-3.5012,-3.5034,-3.5049,-3.5088,-3.5107,-3.5133,-3.5128,-3.5155,-3.5175,-3.5181,-3.5215,-3.523,-3.5256,-3.5293,-3.531,-3.5306,-3.5363,-3.5348,-3.535,-3.5351,-3.5372,-3.5376,-3.538,-3.5329,-3.5328,-3.5328,0,0,-3.504,-3.5059,-3.5086,-3.5105,-3.5134,-3.5147,-3.5154,-3.5183,-3.5193,-3.5228,-3.5233,-3.5257,-3.5302,-3.5321,-3.5336,-3.5373,-3.5375,-3.5381,-3.5394,-3.5414,-3.5418,-3.5421,-3.5433,-3.5438,-3.5384,-3.5384,-3.5384,0,-3.5046,-3.5085,-3.51,-3.5128,-3.5145,-3.5153,-3.518,-3.5198,-3.5233,-3.5245,-3.524,-3.5297,-3.5316,-3.5357,-3.5366,-3.5379,-3.5386,-3.5377,-3.5417,-3.542,-3.5423,-3.5435,-3.544,-3.5385,-3.5385,-3.5385,-3.5385,0,-3.5091,-3.5119,-3.5137,-3.5171,-3.5191,-3.5219,-3.5237,-3.5256,-3.5263,-3.5277,-3.5312,-3.5336,-3.5366,-3.5377,-3.5383,-3.5419,-3.5415,-3.5414,-3.5404,-3.5428,-3.5439,-3.5444,-3.5386,-3.5385,-3.5385,-3.5385,0,0,-3.5116,-3.5159,-3.5166,-3.5181,-3.5214,-3.5236,-3.5264,-3.5295,-3.5309,-3.5334,-3.5358,-3.5397,-3.5396,-3.5413,-3.5423,-3.5441,-3.5468,-3.5437,-3.5437,-3.544,-3.5507,-3.5507,-3.5512,-3.547,-3.5471,-3.5472,-3.5505,0,-3.5146,-3.5196,-3.5211,-3.5254,-3.5279,-3.5288,-3.5313,-3.5336,-3.535,-3.5374,-3.539,-3.5417,-3.5414,-3.5425,-3.5443,-3.546,-3.5481,-3.5458,-3.5491,-3.5492,-3.5482,-3.5518,-3.5518,-3.5548,-3.5509,-3.551,-3.5511,0,-3.5187,-3.5213,-3.5258,-3.5288,-3.5299,-3.5321,-3.5351,-3.5374,-3.54,-3.5409,-3.543,-3.5438,-3.5468,-3.5459,-3.55,-3.5484,-3.5499,-3.551,-3.5512,-3.5513,-3.5501,-3.5519,-3.5558,-3.5562,-3.5518,-3.5517,-3.5517,0,-3.5199,-3.5246,-3.5278,-3.5292,-3.5328,-3.5343,-3.5359,-3.5385,-3.5403,-3.5429,-3.544,-3.5469,-3.5485,-3.5507,-3.5523,-3.5515,-3.5563,-3.5555,-3.5571,-3.557,-3.5579,-3.5577,-3.5618,-3.5591,-3.5591,-3.5591,-3.5591,0,-3.523,-3.5257,-3.5284,-3.5304,-3.5335,-3.5352,-3.5382,-3.5398,-3.5422,-3.5445,-3.5455,-3.5477,-3.5498,-3.5522,-3.5535,-3.5567,-3.5575,-3.5583,-3.5585,-3.558,-3.5579,-3.5589,-3.5586,-3.5592,-3.5592,-3.5592,-3.5592,0,-3.5247,-3.5267,-3.5303,-3.5336,-3.5344,-3.5365,-3.5393,-3.5412,-3.5428,-3.5458,-3.5466,-3.549,-3.552,-3.5539,-3.5576,-3.5585,-3.562,-3.5623,-3.5611,-3.5612,-3.5626,-3.5624,-3.5673,-3.568,-3.565,-3.565,-3.565,0,-3.5265,-3.5286,-3.532,-3.5337,-3.5353,-3.538,-3.5398,-3.5417,-3.5435,-3.5468,-3.5484,-3.5514,-3.5539,-3.5586,-3.5607,-3.5636,-3.5639,-3.5654,-3.5643,-3.5638,-3.5637,-3.5635,-3.5637,-3.5655,-3.5655,-3.5656,-3.5656,0,-3.5293,-3.5302,-3.5328,-3.5358,-3.538,-3.5404,-3.5428,-3.5441,-3.5464,-3.5484,-3.5515,-3.5535,-3.5574,-3.5603,-3.5635,-3.5651,-3.5657,-3.566,-3.5665,-3.5659,-3.565,-3.5654,-3.5614,-3.5658,-3.5657,-3.5657,-3.5657,-3.5657,-3.531,-3.5329,-3.5357,-3.5385,-3.5406,-3.5429,-3.5449,-3.5468,-3.5494,-3.5527,-3.5537,-3.5568,-3.5596,-3.5638,-3.5655,-3.5681,-3.5679,-3.5686,-3.5688,-3.5689,-3.5688,-3.5648,-3.5687,-3.5687,-3.5687,-3.5687,-3.5687,0,-3.5338,-3.5357,-3.5383,-3.5417,-3.5439,-3.5445,-3.5472,-3.5491,-3.5518,-3.5543,-3.5568,-3.5604,-3.5633,-3.5658,-3.5688,-3.5703,-3.5707,-3.5711,-3.5709,-3.5712,-3.5689,-3.5681,-3.5707,-3.5707,-3.5707,-3.5707,-3.5707,-3.5707,-3.5355,-3.5387,-3.54,-3.5443,-3.5461,-3.5492,-3.5508,-3.5529,-3.5549,-3.5588,-3.5612,-3.5628,-3.5653,-3.5686,-3.5713,-3.572,-3.573,-3.5733,-3.5739,-3.5716,-3.5714,-3.5712,-3.5704,-3.5735,-3.5735,-3.576,-3.5761,-3.5761]},{"header":{"parameterUnit":"m.s-1","parameterCategory":1,"la1":30.2991,"la2":30.254,"lo1":-89.0895,"lo2":-89.0444,"dy":0.0017,"dx":0.0017,"nx":28,"ny":28,"refTime":"2025-04-17T09:00:00:Z","depth":0,"parameterNumber":3,"parameterNumberName":"V-component_of_WINDS"},"data":[0,0,0,0,0,0,0,0,0,0,0,0,0,0,0,0,0,0,0,0,0,0,0,0,0,0,0,0,0,0,0,0,0,0,0,0,0,0,0,0,0,0,0,0,0,0,0,0,0,0,0,0,0,0,0,0,0,0,5.1813,5.1815,0,5.1977,5.1979,5.1981,5.2039,5.2038,5.2038,5.2037,5.2198,5.2203,5.2208,0,0,0,0,0,0,0,0,0,0,0,0,0,5.1546,5.155,5.1813,5.1815,5.1817,5.1977,5.1979,5.1981,5.2039,5.2038,5.2038,5.2037,5.2197,5.2202,5.2208,0,0,0,0,0,0,0,0,0,0,0,0,0,5.1681,5.1552,5.1813,5.1865,5.1872,5.1976,5.1979,5.1982,5.2039,5.2038,5.2038,5.2037,5.2195,5.2202,5.2209,5.227,0,0,5.2231,5.2234,0,0,0,0,0,0,0,0,5.1673,5.169,5.1856,5.1862,5.1869,5.1987,5.1944,5.2078,5.2039,5.1975,5.2037,5.2036,5.2128,5.2141,5.2173,5.2278,5.2285,5.2231,5.2236,5.2239,5.2241,0,0,0,0,0,0,0,5.1663,5.1684,5.1878,5.1858,5.1866,5.1879,5.1898,5.1969,5.2054,5.1981,5.1986,5.2005,5.2132,5.2166,5.2177,5.2287,5.2231,5.2238,5.2242,5.2245,5.2453,5.2454,0,0,0,0,0,0,5.1646,5.1675,5.1872,5.1883,5.1767,5.1885,5.1905,5.195,5.2054,5.2069,5.2005,5.2007,5.2154,5.2169,5.2183,5.2264,5.2239,5.2246,5.225,5.2452,5.2453,5.2455,0,0,0,0,0,0,5.164,5.1663,5.1866,5.1781,5.1807,5.1891,5.194,5.1953,5.1988,5.2072,5.2087,5.2025,5.2154,5.2173,5.2249,5.227,5.2249,5.2255,5.2451,5.2452,5.2454,5.2425,0,0,0,0,0,0,5.1632,5.1661,5.1686,5.1781,5.1812,5.1931,5.1941,5.1957,5.2001,5.2005,5.2095,5.2109,5.2155,5.2238,5.2257,5.228,5.2261,5.2449,5.2451,5.2454,5.2425,5.2426,5.2427,0,0,0,0,0,5.1622,5.1669,5.1687,5.171,5.1845,5.1932,5.1949,5.2003,5.2003,5.2028,5.2083,5.2106,5.2265,5.2246,5.2267,5.2293,5.2448,5.2451,5.2453,5.2424,5.2426,5.2427,0,0,0,0,0,0,5.1572,5.1682,5.1703,5.1782,5.1848,5.1942,5.1976,5.2003,5.2068,5.2068,5.213,5.215,5.2222,5.2264,5.2241,5.2359,5.2358,5.2365,5.2328,5.233,5.2331,5.232,5.2267,0,0,0,0,0,5.157,5.1633,5.1726,5.1786,5.1818,5.1891,5.1931,5.1967,5.2036,5.2063,5.2123,5.2187,5.2253,5.2294,5.2358,5.2431,5.2452,5.2459,5.246,5.2461,5.2466,5.251,5.2515,5.2464,5.2464,5.2464,0,0,5.1566,5.1635,5.167,5.1778,5.1833,5.1896,5.1914,5.1979,5.2026,5.2072,5.215,5.2196,5.2272,5.2347,5.2384,5.2385,5.2485,5.2464,5.2464,5.2469,5.2513,5.2518,5.2522,5.2465,5.2465,5.2465,0,0,5.1593,5.1651,5.1709,5.1765,5.1849,5.1897,5.1911,5.2002,5.2035,5.2114,5.2151,5.2207,5.2317,5.237,5.2412,5.2461,5.2485,5.2479,5.2485,5.2527,5.2531,5.2535,5.2554,5.256,5.2484,5.2484,5.2484,0,5.1577,5.1676,5.1735,5.1799,5.1846,5.1894,5.1954,5.2003,5.2103,5.2133,5.2134,5.2275,5.2329,5.2419,5.2432,5.2463,5.2481,5.247,5.2526,5.2531,5.2535,5.2554,5.2561,5.2483,5.2483,5.2484,5.2484,0,5.1653,5.172,5.1757,5.1856,5.1906,5.1967,5.2035,5.2079,5.2111,5.2159,5.2239,5.2306,5.2386,5.241,5.244,5.2505,5.2503,5.2514,5.2515,5.2538,5.2557,5.2564,5.2482,5.2482,5.2482,5.2483,0,0,5.1651,5.1784,5.1796,5.1843,5.194,5.1993,5.2056,5.2137,5.2174,5.224,5.2295,5.2388,5.24,5.2447,5.2484,5.2521,5.2558,5.2528,5.2531,5.2532,5.2634,5.2626,5.2634,5.2574,5.2576,5.2577,5.2629,0,5.1691,5.181,5.1866,5.1959,5.2022,5.207,5.2125,5.219,5.2237,5.2297,5.2347,5.2413,5.2423,5.2452,5.2491,5.2545,5.2579,5.2542,5.2625,5.2628,5.2606,5.2643,5.2635,5.268,5.2636,5.2637,5.2638,0,5.1754,5.1825,5.1925,5.2017,5.2046,5.2095,5.2175,5.2231,5.2306,5.2337,5.2391,5.2428,5.2495,5.2491,5.2585,5.2559,5.2596,5.2628,5.2631,5.2641,5.2635,5.2656,5.2696,5.2703,5.265,5.2649,5.2648,0,5.1744,5.1864,5.1941,5.1978,5.2087,5.2121,5.2167,5.2242,5.2287,5.2356,5.2387,5.2461,5.2502,5.2558,5.2613,5.2605,5.2703,5.2702,5.2731,5.2729,5.2749,5.2747,5.2797,5.2771,5.2771,5.2771,5.2771,0,5.1784,5.1843,5.1938,5.1985,5.2054,5.2117,5.2183,5.2232,5.2298,5.2355,5.2399,5.2451,5.2521,5.2581,5.2624,5.2696,5.2714,5.2741,5.2752,5.2738,5.2735,5.2764,5.2762,5.2773,5.2772,5.2772,5.2772,0,5.1785,5.185,5.1937,5.2035,5.2061,5.2107,5.2189,5.2236,5.2286,5.2357,5.2378,5.2455,5.2529,5.259,5.2685,5.2714,5.279,5.2802,5.2766,5.2772,5.2797,5.2794,5.2868,5.2881,5.2845,5.2845,5.2845,0,5.1806,5.1854,5.1958,5.2001,5.2048,5.2115,5.2163,5.2227,5.2275,5.2365,5.2401,5.2479,5.2544,5.2659,5.2723,5.2796,5.2811,5.2832,5.2822,5.2807,5.2813,5.281,5.2816,5.2832,5.2833,5.2833,5.2833,0,5.1838,5.1869,5.1938,5.2019,5.2076,5.2142,5.2209,5.2241,5.2317,5.2368,5.2446,5.2497,5.2597,5.2673,5.2754,5.28,5.2829,5.2835,5.2846,5.2833,5.2811,5.2825,5.2769,5.2833,5.2833,5.2833,5.2833,5.2833,5.1851,5.1897,5.1978,5.2054,5.2112,5.2174,5.2224,5.2282,5.2348,5.2437,5.247,5.2549,5.2624,5.2736,5.2782,5.2845,5.2848,5.2863,5.2867,5.287,5.2869,5.28,5.2859,5.2859,5.2859,5.2859,5.2859,0,5.1887,5.1942,5.2011,5.2106,5.2165,5.2191,5.2266,5.2314,5.2385,5.2453,5.2518,5.2607,5.2682,5.2753,5.2831,5.2867,5.2883,5.2886,5.2884,5.2894,5.2861,5.2845,5.2872,5.2872,5.2872,5.2872,5.2872,5.2872,5.1912,5.1992,5.2033,5.2141,5.2196,5.2277,5.2318,5.2376,5.2431,5.253,5.2594,5.2641,5.271,5.2794,5.2864,5.2882,5.2909,5.2909,5.2931,5.2898,5.2896,5.2895,5.288,5.2914,5.2914,5.296,5.296,5.2961]}]]